This is the latest recevied weather packets stored in our database for station/object DG1ROH. If no packets are shown the sender has not sent any weather packets the latest 10 day(s).
| Time | Temp. | Humidity | Pressure | Rain* | Wind** | Luminosity | Snow |
|---|---|---|---|---|---|---|---|
| 1778344409 | 16.11° C | 60% | 1018.3 hPa | 0 mm | - | 83 W/m² | - |
| 1778344289 | 16.11° C | 60% | 1018.3 hPa | 0 mm | - | 135 W/m² | - |
| 1778344169 | 16.11° C | 58% | 1018.4 hPa | 0 mm | - | 185 W/m² | - |
| 1778344047 | 16.11° C | 60% | 1018.4 hPa | 0 mm | - | 128 W/m² | - |
| 1778343927 | 16.11° C | 60% | 1018.4 hPa | 0 mm | - | 125 W/m² | - |
| 1778343805 | 16.11° C | 58% | 1018.5 hPa | 0 mm | - | 128 W/m² | - |
| 1778343685 | 16.11° C | 58% | 1018.4 hPa | 0 mm | - | 120 W/m² | - |
| 1778343559 | 16.11° C | 60% | 1018.4 hPa | 0 mm | - | 118 W/m² | - |
| 1778343439 | 16.11° C | 61% | 1018.5 hPa | 0 mm | - | 130 W/m² | - |
| 1778343319 | 16.11° C | 60% | 1018.5 hPa | 0 mm | - | 135 W/m² | - |
| 1778343196 | 16.11° C | 59% | 1018.4 hPa | 0 mm | - | 141 W/m² | - |
| 1778343077 | 16.11° C | 62% | 1018.5 hPa | 0 mm | - | 141 W/m² | - |
| 1778342955 | 16.11° C | 62% | 1018.5 hPa | 0 mm | - | 139 W/m² | - |
| 1778342834 | 16.11° C | 59% | 1018.5 hPa | 0 mm | - | 149 W/m² | - |
| 1778342715 | 16.11° C | 60% | 1018.6 hPa | 0 mm | - | 149 W/m² | - |
| 1778342595 | 16.11° C | 60% | 1018.6 hPa | 0 mm | - | 153 W/m² | - |
| 1778342475 | 16.11° C | 60% | 1018.8 hPa | 0 mm | - | 151 W/m² | - |
| 1778342355 | 16.11° C | 61% | 1018.7 hPa | 0 mm | - | 149 W/m² | - |
| 1778342235 | 16.11° C | 61% | 1018.7 hPa | 0 mm | - | 151 W/m² | - |
| 1778342116 | 15.56° C | 60% | 1018.7 hPa | 0 mm | - | 151 W/m² | - |
| 1778341995 | 15.56° C | 58% | 1018.7 hPa | 0 mm | - | 149 W/m² | - |
| 1778341875 | 16.11° C | 60% | 1018.8 hPa | 0 mm | - | 148 W/m² | - |
| 1778341755 | 15.56° C | 58% | 1018.8 hPa | 0 mm | - | 142 W/m² | - |
| 1778341635 | 16.11° C | 58% | 1018.8 hPa | 0 mm | - | 142 W/m² | - |
| 1778341510 | 16.11° C | 59% | 1018.9 hPa | 0 mm | - | 151 W/m² | - |
* Rain latest hour (hover to see other rain measurements)
** Current wind speed in m/s (hover to see current wind gust speed)